| time (UTC) | temp F | wind direction | speed MPH | gust MPH | rain 1hr in | rain 24hr in | rain mn in | humidity % | barometer mb |
| 20260504050352 | 44 | 269 | 0.0 | 3.0 | 0.00 | 0.00 | 0.00 | 62 | 1015.4 |
| 20260504045849 | 44 | 241 | 2.0 | 4.0 | 0.00 | 0.00 | 0.00 | 63 | 1015.5 |
| 20260504045344 | 44 | 262 | 0.0 | 3.0 | 0.00 | 0.00 | 0.00 | 63 | 1015.4 |
| 20260504044841 | 44 | 262 | 2.0 | 3.0 | 0.00 | 0.00 | 0.00 | 63 | 1015.6 |
| 20260504044339 | 44 | 262 | 1.0 | 2.0 | 0.00 | 0.00 | 0.00 | 64 | 1015.4 |
| 20260504043836 | 44 | 266 | 0.0 | 2.0 | 0.00 | 0.00 | 0.00 | 63 | 1015.5 |
| 20260504043333 | 44 | 240 | 1.0 | 3.0 | 0.00 | 0.00 | 0.00 | 63 | 1015.4 |
| 20260504042830 | 44 | 292 | 1.0 | 3.0 | 0.00 | 0.00 | 0.00 | 63 | 1015.3 |
| 20260504042326 | 45 | 298 | 2.0 | 3.0 | 0.00 | 0.00 | 0.00 | 62 | 1015.5 |
| 20260504041823 | 44 | 298 | 1.0 | 3.0 | 0.00 | 0.00 | 0.00 | 63 | 1015.4 |
| 20260504041319 | 45 | 245 | 2.0 | 3.0 | 0.00 | 0.00 | 0.00 | 62 | 1015.2 |
| 20260504040815 | 45 | 260 | 2.0 | 3.0 | 0.00 | 0.00 | 0.00 | 62 | 1015.4 |
| 20260504040313 | 45 | 307 | 2.0 | 4.0 | 0.00 | 0.00 | 0.00 | 61 | 1015.4 |
| 20260504035809 | 46 | 257 | 2.0 | 5.0 | 0.00 | 0.00 | 0.00 | 60 | 1015.4 |
| 20260504035306 | 45 | 275 | 2.0 | 2.0 | 0.00 | 0.00 | 0.00 | 60 | 1015.3 |
| 20260504034803 | 45 | 296 | 1.0 | 3.0 | 0.00 | 0.00 | 0.00 | 60 | 1015.1 |
| 20260504034301 | 44 | 277 | 2.0 | 3.0 | 0.00 | 0.00 | 0.00 | 63 | 1015.0 |
| 20260504033758 | 43 | 233 | 0.0 | 2.0 | 0.00 | 0.00 | 0.00 | 65 | 1015.0 |
| 20260504033255 | 43 | 269 | 0.0 | 2.0 | 0.00 | 0.00 | 0.00 | 67 | 1015.1 |
| 20260504032752 | 43 | 6 | 0.0 | 2.0 | 0.00 | 0.00 | 0.00 | 67 | 1015.2 |
| 20260504032249 | 43 | 135 | 0.0 | 2.0 | 0.00 | 0.00 | 0.00 | 67 | 1014.9 |
| 20260504031746 | 44 | 172 | 1.0 | 2.0 | 0.00 | 0.00 | 0.00 | 64 | 1015.1 |
| 20260504031243 | 44 | 166 | 0.0 | 2.0 | 0.00 | 0.00 | 0.00 | 63 | 1015.2 |
| 20260504030739 | 45 | 327 | 0.0 | 2.0 | 0.00 | 0.00 | 0.00 | 61 | 1015.2 |
| 20260504030236 | 45 | 157 | 0.0 | 3.0 | 0.00 | 0.00 | 0.00 | 60 | 1015.2 |
| 20260504025733 | 45 | 315 | 0.0 | 3.0 | 0.00 | 0.00 | 0.00 | 61 | 1015.3 |
| 20260504025230 | 44 | 331 | 0.0 | 2.0 | 0.00 | 0.00 | 0.00 | 64 | 1015.1 |
| 20260504024727 | 44 | 317 | 2.0 | 2.0 | 0.00 | 0.00 | 0.00 | 64 | 1015.1 |
| 20260504024223 | 45 | 354 | 0.0 | 1.0 | 0.00 | 0.00 | 0.00 | 63 | 1015.2 |
| 20260504023720 | 45 | 30 | 0.0 | 2.0 | 0.00 | 0.00 | 0.00 | 62 | 1015.1 |
| 20260504023216 | 44 | 217 | 1.0 | 2.0 | 0.00 | 0.00 | 0.00 | 66 | 1014.7 |
| 20260504022712 | 44 | 216 | 0.0 | 2.0 | 0.00 | 0.00 | 0.00 | 66 | 1014.8 |
| 20260504022209 | 44 | 19 | 1.0 | 2.0 | 0.00 | 0.00 | 0.00 | 64 | 1014.8 |
| 20260504021706 | 45 | 124 | 0.0 | 2.0 | 0.00 | 0.00 | 0.00 | 62 | 1015.0 |
| 20260504021203 | 46 | 209 | 0.0 | 2.0 | 0.00 | 0.00 | 0.00 | 61 | 1014.8 |
| 20260504020700 | 47 | 55 | 0.0 | 1.0 | 0.00 | 0.00 | 0.00 | 57 | 1014.7 |
| 20260504020155 | 47 | 253 | 1.0 | 2.0 | 0.00 | 0.00 | 0.00 | 56 | 1014.7 |
| 20260504015652 | 47 | 249 | 0.0 | 2.0 | 0.00 | 0.00 | 0.00 | 55 | 1014.7 |
| 20260504015149 | 47 | 320 | 0.0 | 2.0 | 0.00 | 0.00 | 0.00 | 56 | 1014.5 |
| 20260504014644 | 48 | 157 | 0.0 | 2.0 | 0.00 | 0.00 | 0.00 | 53 | 1014.6 |
| 20260504014142 | 47 | 165 | 1.0 | 2.0 | 0.00 | 0.00 | 0.00 | 53 | 1014.7 |
| 20260504013640 | 46 | 264 | 0.0 | 1.0 | 0.00 | 0.00 | 0.00 | 56 | 1014.8 |
| 20260504013136 | 47 | 319 | 0.0 | 2.0 | 0.00 | 0.00 | 0.00 | 55 | 1014.6 |
| 20260504012633 | 47 | 200 | 0.0 | 2.0 | 0.00 | 0.00 | 0.00 | 56 | 1014.5 |
| 20260504012131 | 48 | 290 | 0.0 | 2.0 | 0.00 | 0.00 | 0.00 | 53 | 1014.3 |
| 20260504011628 | 49 | 160 | 0.0 | 2.0 | 0.00 | 0.00 | 0.00 | 52 | 1014.5 |
| 20260504011124 | 49 | 184 | 0.0 | 3.0 | 0.00 | 0.00 | 0.00 | 52 | 1014.2 |
| 20260504010620 | 49 | 315 | 0.0 | 1.0 | 0.00 | 0.00 | 0.00 | 51 | 1014.4 |
| 20260504010116 | 50 | 62 | 0.0 | 2.0 | 0.00 | 0.00 | 0.00 | 49 | 1014.3 |
| 20260504005613 | 50 | 248 | 1.0 | 2.0 | 0.00 | 0.00 | 0.00 | 49 | 1014.4 |
| 20260504005110 | 50 | 237 | 1.0 | 2.0 | 0.00 | 0.00 | 0.00 | 49 | 1014.2 |
| 20260504004608 | 50 | 239 | 0.0 | 2.0 | 0.00 | 0.00 | 0.00 | 47 | 1014.3 |
| 20260504004105 | 50 | 315 | 0.0 | 2.0 | 0.00 | 0.00 | 0.00 | 48 | 1014.3 |
| 20260504003601 | 51 | 40 | 0.0 | 2.0 | 0.00 | 0.00 | 0.00 | 46 | 1014.1 |
| 20260504003058 | 51 | 186 | 0.0 | 2.0 | 0.00 | 0.00 | 0.00 | 46 | 1014.2 |
| 20260504002555 | 51 | 307 | 0.0 | 2.0 | 0.00 | 0.00 | 0.00 | 45 | 1014.3 |
| 20260504002053 | 52 | 53 | 0.0 | 2.0 | 0.00 | 0.00 | 0.00 | 44 | 1014.1 |
| 20260504001550 | 53 | 309 | 0.0 | 2.0 | 0.00 | 0.00 | 0.00 | 43 | 1014.3 |
| 20260504001046 | 53 | 38 | 0.0 | 2.0 | 0.00 | 0.00 | 0.00 | 42 | 1014.0 |
| 20260504000543 | 54 | 321 | 0.0 | 2.0 | 0.00 | 0.00 | 0.00 | 42 | 1014.0 |
| 20260504000041 | 55 | 315 | 0.0 | 2.0 | 0.00 | 0.00 | 0.00 | 39 | 1014.1 |
| 20260503235539 | 57 | 202 | 0.0 | 2.0 | 0.00 | 0.00 | 0.00 | 38 | 1013.9 |
| 20260503235035 | 57 | 288 | 0.0 | 2.0 | 0.00 | 0.00 | 0.00 | 36 | 1014.0 |
| 20260503234533 | 58 | 357 | 0.0 | 2.0 | 0.00 | 0.00 | 0.00 | 35 | 1014.0 |
| 20260503234031 | 59 | 330 | 0.0 | 3.0 | 0.00 | 0.00 | 0.00 | 34 | 1013.8 |
| 20260503233527 | 59 | 251 | 3.0 | 5.0 | 0.00 | 0.00 | 0.00 | 33 | 1013.5 |
| 20260503233023 | 59 | 254 | 0.0 | 7.0 | 0.00 | 0.00 | 0.00 | 35 | 1013.9 |
| 20260503232520 | 59 | 334 | 2.0 | 3.0 | 0.00 | 0.00 | 0.00 | 33 | 1013.9 |
| 20260503232018 | 60 | 21 | 0.0 | 4.0 | 0.00 | 0.00 | 0.00 | 33 | 1013.5 |
| 20260503231516 | 60 | 260 | 2.0 | 8.0 | 0.00 | 0.00 | 0.00 | 33 | 1013.5 |
| 20260503231012 | 60 | 64 | 0.0 | 4.0 | 0.00 | 0.00 | 0.00 | 33 | 1013.6 |
| 20260503230509 | 62 | 310 | 3.0 | 6.0 | 0.00 | 0.00 | 0.00 | 31 | 1013.8 |
| 20260503230006 | 62 | 235 | 5.0 | 6.0 | 0.00 | 0.00 | 0.00 | 30 | 1013.6 |
| 20260503225503 | 62 | 281 | 5.0 | 7.0 | 0.00 | 0.00 | 0.00 | 30 | 1013.8 |
| 20260503224958 | 62 | 71 | 2.0 | 4.0 | 0.00 | 0.00 | 0.00 | 31 | 1013.5 |
| 20260503224455 | 62 | 211 | 1.0 | 8.0 | 0.00 | 0.00 | 0.00 | 31 | 1013.9 |
| 20260503223953 | 63 | 343 | 2.0 | 8.0 | 0.00 | 0.00 | 0.00 | 30 | 1013.4 |
| 20260503223451 | 63 | 281 | 4.0 | 8.0 | 0.00 | 0.00 | 0.00 | 30 | 1013.4 |
| 20260503222946 | 63 | 250 | 5.0 | 16.0 | 0.00 | 0.00 | 0.00 | 30 | 1013.6 |
| 20260503222445 | 64 | 237 | 5.0 | 7.0 | 0.00 | 0.00 | 0.00 | 30 | 1013.5 |
| 20260503221943 | 63 | 313 | 4.0 | 11.0 | 0.00 | 0.00 | 0.00 | 29 | 1013.6 |
| 20260503221441 | 63 | 240 | 2.0 | 6.0 | 0.00 | 0.00 | 0.00 | 30 | 1013.8 |
| 20260503220937 | 64 | 256 | 3.0 | 7.0 | 0.00 | 0.00 | 0.00 | 31 | 1013.5 |
| 20260503220434 | 63 | 23 | 2.0 | 12.0 | 0.00 | 0.00 | 0.00 | 31 | 1014.0 |
| 20260503215931 | 63 | 56 | 2.0 | 12.0 | 0.00 | 0.00 | 0.00 | 31 | 1013.9 |
| 20260503215428 | 63 | 308 | 10.0 | 11.0 | 0.00 | 0.00 | 0.00 | 29 | 1013.6 |
| 20260503214926 | 64 | 334 | 0.0 | 6.0 | 0.00 | 0.00 | 0.00 | 30 | 1014.0 |
| 20260503214423 | 64 | 353 | 7.0 | 8.0 | 0.00 | 0.00 | 0.00 | 30 | 1013.9 |
| 20260503213920 | 64 | 299 | 4.0 | 8.0 | 0.00 | 0.00 | 0.00 | 30 | 1013.9 |
| 20260503213418 | 64 | 294 | 2.0 | 7.0 | 0.00 | 0.00 | 0.00 | 32 | 1013.8 |
| 20260503212914 | 63 | 281 | 3.0 | 10.0 | 0.00 | 0.00 | 0.00 | 31 | 1013.8 |
| 20260503212412 | 63 | 356 | 3.0 | 9.0 | 0.00 | 0.00 | 0.00 | 31 | 1013.6 |
| 20260503211909 | 64 | 246 | 4.0 | 12.0 | 0.00 | 0.00 | 0.00 | 30 | 1013.9 |
| 20260503211406 | 64 | 230 | 8.0 | 12.0 | 0.00 | 0.00 | 0.00 | 30 | 1013.6 |
| 20260503210901 | 63 | 315 | 4.0 | 14.0 | 0.00 | 0.00 | 0.00 | 30 | 1013.8 |
| 20260503210358 | 64 | 343 | 4.0 | 10.0 | 0.00 | 0.00 | 0.00 | 30 | 1013.9 |
| 20260503205853 | 63 | 266 | 2.0 | 7.0 | 0.00 | 0.00 | 0.00 | 31 | 1013.9 |
| 20260503205350 | 64 | 252 | 4.0 | 13.0 | 0.00 | 0.00 | 0.00 | 31 | 1014.0 |
| 20260503204847 | 65 | 295 | 4.0 | 7.0 | 0.00 | 0.00 | 0.00 | 30 | 1013.8 |
| 20260503204344 | 64 | 98 | 2.0 | 9.0 | 0.00 | 0.00 | 0.00 | 30 | 1013.9 |
| 20260503203841 | 64 | 240 | 3.0 | 10.0 | 0.00 | 0.00 | 0.00 | 32 | 1013.8 |
| 20260503203338 | 64 | 324 | 4.0 | 7.0 | 0.00 | 0.00 | 0.00 | 31 | 1013.9 |
| 20260503202835 | 63 | 37 | 2.0 | 7.0 | 0.00 | 0.00 | 0.00 | 32 | 1014.0 |
| 20260503202334 | 63 | 50 | 1.0 | 6.0 | 0.00 | 0.00 | 0.00 | 32 | 1014.0 |
| 20260503201832 | 63 | 248 | 4.0 | 9.0 | 0.00 | 0.00 | 0.00 | 30 | 1014.1 |
| 20260503201328 | 64 | 16 | 6.0 | 11.0 | 0.00 | 0.00 | 0.00 | 31 | 1013.9 |
| 20260503200826 | 64 | 253 | 5.0 | 11.0 | 0.00 | 0.00 | 0.00 | 31 | 1014.0 |
| 20260503200321 | 62 | 306 | 3.0 | 9.0 | 0.00 | 0.00 | 0.00 | 33 | 1014.4 |
| 20260503195819 | 61 | 257 | 3.0 | 9.0 | 0.00 | 0.00 | 0.00 | 33 | 1014.2 |
| 20260503195315 | 63 | 262 | 7.0 | 8.0 | 0.00 | 0.00 | 0.00 | 28 | 1014.4 |
| 20260503194813 | 63 | 171 | 5.0 | 10.0 | 0.00 | 0.00 | 0.00 | 32 | 1014.5 |
| 20260503194309 | 62 | 303 | 3.0 | 11.0 | 0.00 | 0.00 | 0.00 | 33 | 1014.4 |
| 20260503193805 | 62 | 1 | 8.0 | 11.0 | 0.00 | 0.00 | 0.00 | 32 | 1014.8 |
| 20260503193301 | 62 | 352 | 3.0 | 11.0 | 0.00 | 0.00 | 0.00 | 31 | 1014.7 |
| 20260503192757 | 61 | 263 | 3.0 | 19.0 | 0.00 | 0.00 | 0.00 | 33 | 1014.6 |
| 20260503192252 | 62 | 252 | 8.0 | 11.0 | 0.00 | 0.00 | 0.00 | 31 | 1014.8 |
| 20260503191749 | 62 | 313 | 3.0 | 15.0 | 0.00 | 0.00 | 0.00 | 35 | 1014.9 |
| 20260503191246 | 63 | 184 | 3.0 | 8.0 | 0.00 | 0.00 | 0.00 | 30 | 1014.7 |
| 20260503190743 | 62 | 241 | 7.0 | 20.0 | 0.00 | 0.00 | 0.00 | 33 | 1014.9 |
| 20260503190240 | 61 | 247 | 3.0 | 8.0 | 0.00 | 0.00 | 0.00 | 33 | 1015.0 |
| 20260503185737 | 62 | 310 | 3.0 | 7.0 | 0.00 | 0.00 | 0.00 | 31 | 1015.1 |
| 20260503185232 | 62 | 309 | 4.0 | 12.0 | 0.00 | 0.00 | 0.00 | 30 | 1015.0 |
| 20260503184727 | 60 | 294 | 4.0 | 7.0 | 0.00 | 0.00 | 0.00 | 31 | 1014.8 |
| 20260503184224 | 60 | 319 | 4.0 | 10.0 | 0.00 | 0.00 | 0.00 | 31 | 1015.3 |
| 20260503183720 | 60 | 304 | 3.0 | 9.0 | 0.00 | 0.00 | 0.00 | 34 | 1015.3 |
| 20260503183217 | 60 | 338 | 4.0 | 15.0 | 0.00 | 0.00 | 0.00 | 31 | 1015.4 |
| 20260503182716 | 61 | 223 | 5.0 | 13.0 | 0.00 | 0.00 | 0.00 | 33 | 1015.4 |
| 20260503182214 | 59 | 280 | 4.0 | 13.0 | 0.00 | 0.00 | 0.00 | 37 | 1015.3 |
| 20260503181710 | 59 | 263 | 11.0 | 18.0 | 0.00 | 0.00 | 0.00 | 31 | 1015.2 |
| 20260503181207 | 59 | 259 | 3.0 | 13.0 | 0.00 | 0.00 | 0.00 | 35 | 1015.6 |
| 20260503180704 | 60 | 5 | 4.0 | 7.0 | 0.00 | 0.00 | 0.00 | 33 | 1015.6 |
| 20260503180202 | 59 | 316 | 3.0 | 12.0 | 0.00 | 0.00 | 0.00 | 38 | 1015.8 |
| 20260503175659 | 59 | 5 | 6.0 | 15.0 | 0.00 | 0.00 | 0.00 | 36 | 1015.8 |
| 20260503175156 | 59 | 273 | 4.0 | 10.0 | 0.00 | 0.00 | 0.00 | 35 | 1015.7 |
| 20260503174652 | 58 | 302 | 1.0 | 11.0 | 0.00 | 0.00 | 0.00 | 39 | 1015.6 |
| 20260503174150 | 59 | 6 | 4.0 | 8.0 | 0.00 | 0.00 | 0.00 | 35 | 1015.7 |
| 20260503173645 | 57 | 326 | 6.0 | 11.0 | 0.00 | 0.00 | 0.00 | 37 | 1015.8 |
| 20260503173141 | 58 | 233 | 6.0 | 10.0 | 0.00 | 0.00 | 0.00 | 34 | 1016.1 |
| 20260503172638 | 58 | 332 | 7.0 | 11.0 | 0.00 | 0.00 | 0.00 | 36 | 1016.0 |
| 20260503172136 | 58 | 278 | 4.0 | 15.0 | 0.00 | 0.00 | 0.00 | 39 | 1016.0 |
| 20260503171632 | 57 | 345 | 2.0 | 15.0 | 0.00 | 0.00 | 0.00 | 39 | 1016.3 |
| 20260503171129 | 57 | 273 | 8.0 | 16.0 | 0.00 | 0.00 | 0.00 | 37 | 1016.2 |
| 20260503170626 | 57 | 246 | 3.0 | 18.0 | 0.00 | 0.00 | 0.00 | 38 | 1016.3 |
| 20260503170123 | 57 | 243 | 7.0 | 10.0 | 0.00 | 0.00 | 0.00 | 36 | 1016.5 |
| 20260503150515 | 50 | 266 | 7.0 | 13.0 | 0.00 | 0.00 | 0.00 | 46 | 1017.4 |
| 20260503131408 | 48 | 272 | 2.0 | 10.0 | 0.00 | 0.00 | 0.00 | 54 | 1017.7 |
| 20260503130904 | 48 | 316 | 4.0 | 11.0 | 0.00 | 0.00 | 0.00 | 53 | 1017.6 |
| 20260503130402 | 48 | 274 | 2.0 | 8.0 | 0.00 | 0.00 | 0.00 | 55 | 1017.8 |
| 20260503110806 | 40 | 346 | 2.0 | 4.0 | 0.00 | 0.00 | 0.00 | 66 | 1016.8 |
| 20260503110303 | 39 | 300 | 1.0 | 4.0 | 0.00 | 0.00 | 0.00 | 68 | 1016.7 |
| 20260503100229 | 39 | 282 | 1.0 | 3.0 | 0.00 | 0.00 | 0.00 | 68 | 1016.0 |
| 20260503090153 | 41 | 32 | 0.0 | 6.0 | 0.00 | 0.00 | 0.00 | 66 | 1015.5 |
| 20260503081624 | 41 | 304 | 0.0 | 6.0 | 0.00 | 0.00 | 0.00 | 68 | 1015.2 |
| 20260503081121 | 41 | 325 | 3.0 | 8.0 | 0.00 | 0.00 | 0.00 | 69 | 1015.3 |
| 20260503080617 | 41 | 348 | 4.0 | 5.0 | 0.00 | 0.00 | 0.00 | 71 | 1015.4 |
| 20260503080114 | 41 | 269 | 1.0 | 6.0 | 0.00 | 0.00 | 0.00 | 69 | 1015.3 |
| 20260503072551 | 42 | 4 | 0.0 | 4.0 | 0.00 | 0.00 | 0.00 | 72 | 1014.9 |
| 20260503072048 | 42 | 294 | 3.0 | 5.0 | 0.00 | 0.00 | 0.00 | 72 | 1014.9 |
| 20260503071545 | 42 | 326 | 1.0 | 5.0 | 0.00 | 0.00 | 0.00 | 72 | 1015.0 |
| 20260503071042 | 42 | 357 | 2.0 | 3.0 | 0.00 | 0.00 | 0.00 | 72 | 1014.9 |
| 20260503070538 | 42 | 292 | 1.0 | 3.0 | 0.00 | 0.00 | 0.00 | 73 | 1015.0 |